カタログに戻る

CZ-6A DEB

運用中PO
NORAD 54967·DEBRIS·🇨🇳 China

打ち上げ Nov 11, 2022 から Taiyuan Satellite Launch Center

Loading…

次のパス (今後24時間)

TLE

最新Source: Space-Track

元期: Sep 13, 2026, 09:42 UTC

1 54967U 22151TG  26256.40473639  .00000113  00000-0  19278-3 0  9994
2 54967  99.0441 119.8266 0424023 218.5179 138.4976 13.31119266186232

AllMySatでCZ-6A DEBをリアルタイム追跡

Download on the App Store